Regional Weather Roundup
Issued by NWS

Home | Current Version | Previous Version | Text Only | Print | Product List | Glossary Off
Versions: 1 2 3 4 5 6 7 8 9 10 11 12 13 14 15 16 17 18 19 20 21 22 23 24 25 26 27 28 29 30 31 32 33 34 35 36 37 38 39 40 41 42 43 44 45 46 47 48 49 50

000
ASUS43 KLSX 221807
RWRMO
STLRWRMO ALL

WEATHER SUMMARY FOR MISSOURI
NATIONAL WEATHER SERVICE SPRINGFIELD MO
100 PM CDT SAT JUL 22 2017

NOTE: "FAIR" INDICATES FEW OR NO CLOUDS BELOW 12,000 FEET WITH NO
       SIGNIFICANT WEATHER AND/OR OBSTRUCTIONS TO VISIBILITY.
       CURRENT SKY AND/OR WEATHER CONDITIONS ARE NOT AVAILABLE FOR
       CHILLICOTHE AND FARMINGTON.

MOZ001>031-035>038-043-044-053-054-221900-
...NORTHERN AND WESTERN MISSOURI...

CITY           SKY/WX    TMP DP  RH WIND       PRES   REMARKS
KANSAS CTY INT MOSUNNY   93  76  57 SW13      29.83S HX 105
6HR MIN TEMP:  81; 6HR MAX TEMP:  93;

KANSAS C DTWN  SUNNY     95  74  50 SW7       29.81S HX 105
6HR MIN TEMP:  84; 6HR MAX TEMP:  95;

LEE`S SUMMIT     N/A     94  73  50 SW16      29.84F HX 103
6HR MIN TEMP:  82; 6HR MAX TEMP:  95;

ST JOSEPH      SUNNY     93  77  59 W8        29.82R HX 107
6HR MIN TEMP:  80; 6HR MAX TEMP:  93;

CHILLICOTHE      N/A     92  77  61 VRB6      29.82R HX 105
6HR MIN TEMP:  79; 6HR MAX TEMP:  92;

KIRKSVILLE     MOSUNNY   92  76  59 W9        29.83S HX 104
6HR MIN TEMP:  80; 6HR MAX TEMP:  93;


$$
MOZ066>068-077>081-088>096-101>105-221900-
...SOUTHWEST MISSOURI...

CITY           SKY/WX    TMP DP  RH WIND       PRES   REMARKS
SPRINGFIELD    SUNNY     95  72  47 SW10      29.94F HX 103
6HR MIN TEMP:  75; 6HR MAX TEMP:  95;

JOPLIN         SUNNY     98  74  45 S15       29.92F HX 109
6HR MIN TEMP:  80; 6HR MAX TEMP:  98; 6HR PCP: TRACE;

BRANSON        SUNNY     93  70  46 SW9       29.98F HX  99

$$
MOZ032>034-039>042-045>050-055>058-069>072-221900-
...CENTRAL MISSOURI...

CITY           SKY/WX    TMP DP  RH WIND       PRES   REMARKS
COLUMBIA       SUNNY     98  73  44 SW12G20   29.85F HX 108
6HR MIN TEMP:  79; 6HR MAX TEMP:  98;

JEFFERSON CITY SUNNY     95  76  53 S8        29.83F HX 108
6HR MIN TEMP:  80; 6HR MAX TEMP:  95;

ROLLA          SUNNY     93  75  55 S12       29.89F HX 104
6HR MIN TEMP:  76; 6HR MAX TEMP:  93;

SEDALIA        SUNNY     95  77  55 SW16      29.86F HX 109
6HR MIN TEMP:  81; 6HR MAX TEMP:  96;

WHITEMAN AFB   MOSUNNY   97  73  45 W16G22    29.83S HX 106
OSAGE BEACH    SUNNY     98  72  42 W12       29.88F HX 107

$$
MOZ051-052-059>065-221900-
...EAST CENTRAL MISSOURI...

CITY           SKY/WX    TMP DP  RH WIND       PRES   REMARKS
ST LOUIS INTL  SUNNY     95  73  48 S17G23    29.85F HX 104
6HR MIN TEMP:  85; 6HR MAX TEMP:  96;

SPIRIT OF STL  SUNNY     96  74  48 SW14G20   29.83F HX 107
6HR MIN TEMP:  82; 6HR MAX TEMP:  96;

ST CHARLES     SUNNY     94  74  52 S17G23    29.82F HX 104
6HR MIN TEMP:  78; 6HR MAX TEMP:  94;


$$
MOZ072>076-082>087-097>100-106>115-221900-
...SOUTH CENTRAL AND SOUTHEAST MISSOURI...

CITY           SKY/WX    TMP DP  RH WIND       PRES   REMARKS
CAPE GIRARDEAU SUNNY     94  74  52 S9        29.91F HX 104
6HR MIN TEMP:  78; 6HR MAX TEMP:  94;

FARMINGTON     SUNNY     95  74  50 S10       29.92F HX 105
6HR MIN TEMP:  78; 6HR MAX TEMP:  95;

POPLAR BLUFF   SUNNY     92  78  63 S9        29.92F HX 107
6HR MIN TEMP:  78; 6HR MAX TEMP:  92;

WEST PLAINS    SUNNY     95  70  44 SW9       29.97F HX 101
6HR MIN TEMP:  75; 6HR MAX TEMP:  95;


$$




USA.gov is the U.S. government's official web portal to all federal, state and local government web resources and services.